カタログに戻る

SL-14 DEB

運用中PO
NORAD 17844·DEBRIS·🇷🇺 Russia

打ち上げ Dec 18, 1986 から Plesetsk Cosmodrome

Loading…

次のパス (今後24時間)

TLE

最新Source: Space-Track

元期: Sep 13, 2026, 07:43 UTC

1 17844U 86101K   26256.32193002  .00000689  00000-0  37334-3 0  9997
2 17844  82.5083 214.2739 0018146   4.4842 148.7012 14.11167881 30590

AllMySatでSL-14 DEBをリアルタイム追跡

Download on the App Store